トータス彗星

C/2017 M5 ( TOTAS )

English version
Home page
Updated on February 8, 2021

---------------------------------------------------------------------

・ プロフィール

発見日 2017年6月23日
発見光度 18.6等
発見者 Teide Observatory Tenerife Asteroid Survey (TOTAS)

・ 写真集

・ 軌道要素

Epoch 2018 June 11.0 TT = JDT 2458280.5
T 2018 June 2.97161 TT                                  Rudenko
q   5.9895743            (2000.0)            P               Q
z  -0.0006424      Peri.   92.66069     +0.60571789     +0.77903557
 +/-0.0000009      Node   216.26267     -0.79432646     +0.58017857
e   1.0038476      Incl.   15.88486     -0.04638225     +0.23768973
From 283 observations 2016 Mar. 6-2019 Dec. 2, mean residual 0".5.

・ 光度変化

        m1 = -4.5 + 5 logΔ + 24 log r

---------------------------------------------------------------------

軌道要素はM.P.E.C. 2020-P19に掲載されたものです。
光度グラフはComet for Windowsで作成したものです。

---------------------------------------------------------------------

Copyright(C) Seiichi Yoshida (comet@aerith.net). All rights reserved.